| time (UTC) | temp F | wind direction | speed MPH | gust MPH | rain 1hr in | rain 24hr in | rain mn in | humidity % | barometer mb |
| 20260504184508 | 70 | 198 | 4.0 | 15.0 | 0.00 | 0.00 | 0.00 | 38 | 1009.9 |
| 20260504183009 | 70 | 235 | 4.0 | 9.0 | 0.00 | 0.00 | 0.00 | 38 | 1010.2 |
| 20260504181503 | 70 | 192 | 4.0 | 9.0 | 0.00 | 0.00 | 0.00 | 41 | 1010.5 |
| 20260504180004 | 70 | 219 | 3.0 | 9.0 | 0.00 | 0.00 | 0.00 | 39 | 1010.6 |
| 20260504174503 | 70 | 192 | 6.0 | 9.0 | 0.00 | 0.00 | 0.00 | 37 | 1010.8 |
| 20260504173009 | 69 | 230 | 3.0 | 10.0 | 0.00 | 0.00 | 0.00 | 43 | 1010.9 |
| 20260504171533 | 69 | 217 | 5.0 | 10.0 | 0.00 | 0.00 | 0.00 | 41 | 1011.2 |
| 20260504081525 | 38 | 238 | 0.0 | 0.0 | 0.00 | 0.00 | 0.00 | 81 | 1014.0 |
| 20260504050014 | 44 | 215 | 0.0 | 0.0 | 0.00 | 0.00 | 0.00 | 70 | 1013.8 |
| 20260504044524 | 45 | 215 | 0.0 | 0.0 | 0.00 | 0.00 | 0.00 | 65 | 1013.9 |
| 20260504043003 | 46 | 215 | 0.0 | 0.0 | 0.00 | 0.00 | 0.00 | 63 | 1013.7 |
| 20260504041507 | 48 | 215 | 0.0 | 0.0 | 0.00 | 0.00 | 0.00 | 57 | 1013.7 |
| 20260504040010 | 49 | 215 | 0.0 | 0.0 | 0.00 | 0.00 | 0.00 | 57 | 1013.5 |
| 20260504034516 | 51 | 215 | 0.0 | 2.0 | 0.00 | 0.00 | 0.00 | 49 | 1013.2 |
| 20260504033022 | 51 | 202 | 0.0 | 2.0 | 0.00 | 0.00 | 0.00 | 48 | 1013.1 |
| 20260504031504 | 51 | 199 | 0.0 | 2.0 | 0.00 | 0.00 | 0.00 | 48 | 1013.1 |
| 20260504030007 | 51 | 207 | 0.0 | 2.0 | 0.00 | 0.00 | 0.00 | 49 | 1013.1 |
| 20260504024514 | 50 | 207 | 0.0 | 2.0 | 0.00 | 0.00 | 0.00 | 52 | 1013.1 |
| 20260504023020 | 50 | 203 | 0.0 | 0.0 | 0.00 | 0.00 | 0.00 | 53 | 1013.1 |
| 20260504021527 | 50 | 203 | 0.0 | 2.0 | 0.00 | 0.00 | 0.00 | 52 | 1013.2 |
| 20260504020006 | 51 | 203 | 0.0 | 2.0 | 0.00 | 0.00 | 0.00 | 50 | 1013.1 |
| 20260504014512 | 50 | 218 | 0.0 | 0.0 | 0.00 | 0.00 | 0.00 | 52 | 1013.0 |
| 20260504013016 | 51 | 218 | 0.0 | 0.0 | 0.00 | 0.00 | 0.00 | 51 | 1013.0 |
| 20260504011524 | 53 | 218 | 1.0 | 2.0 | 0.00 | 0.00 | 0.00 | 47 | 1013.0 |
| 20260504010025 | 53 | 209 | 0.0 | 2.0 | 0.00 | 0.00 | 0.00 | 46 | 1012.9 |
| 20260504004510 | 54 | 209 | 0.0 | 2.0 | 0.00 | 0.00 | 0.00 | 44 | 1012.7 |
| 20260504003012 | 55 | 209 | 0.0 | 2.0 | 0.00 | 0.00 | 0.00 | 43 | 1012.5 |
| 20260504001519 | 56 | 213 | 1.0 | 2.0 | 0.00 | 0.00 | 0.00 | 41 | 1012.3 |
| 20260504000022 | 56 | 204 | 1.0 | 4.0 | 0.00 | 0.00 | 0.00 | 40 | 1012.2 |
| 20260503234537 | 57 | 192 | 1.0 | 6.0 | 0.00 | 0.00 | 0.00 | 40 | 1012.0 |
| 20260503233007 | 58 | 198 | 2.0 | 7.0 | 0.00 | 0.00 | 0.00 | 38 | 1012.0 |
| 20260503231512 | 58 | 210 | 1.0 | 5.0 | 0.00 | 0.00 | 0.00 | 38 | 1011.9 |
| 20260503230022 | 59 | 220 | 1.0 | 5.0 | 0.00 | 0.00 | 0.00 | 36 | 1011.8 |
| 20260503224503 | 59 | 184 | 3.0 | 6.0 | 0.00 | 0.00 | 0.00 | 36 | 1011.7 |
| 20260503223008 | 59 | 200 | 3.0 | 6.0 | 0.00 | 0.00 | 0.00 | 37 | 1011.6 |
| 20260503221511 | 58 | 180 | 2.0 | 6.0 | 0.00 | 0.00 | 0.00 | 36 | 1011.7 |
| 20260503220010 | 59 | 173 | 1.0 | 10.0 | 0.00 | 0.00 | 0.00 | 36 | 1011.8 |
| 20260503214502 | 59 | 179 | 2.0 | 6.0 | 0.00 | 0.00 | 0.00 | 36 | 1011.7 |
| 20260503213008 | 59 | 167 | 1.0 | 6.0 | 0.00 | 0.00 | 0.00 | 37 | 1011.6 |
| 20260503211507 | 60 | 130 | 1.0 | 7.0 | 0.00 | 0.00 | 0.00 | 35 | 1011.7 |
| 20260503210011 | 61 | 267 | 2.0 | 9.0 | 0.00 | 0.00 | 0.00 | 32 | 1011.7 |
| 20260503204504 | 60 | 207 | 3.0 | 6.0 | 0.00 | 0.00 | 0.00 | 33 | 1011.6 |
| 20260503203003 | 60 | 192 | 4.0 | 11.0 | 0.00 | 0.00 | 0.00 | 35 | 1012.0 |
| 20260503201503 | 60 | 234 | 2.0 | 7.0 | 0.00 | 0.00 | 0.00 | 36 | 1011.9 |
| 20260503200012 | 60 | 202 | 3.0 | 5.0 | 0.00 | 0.00 | 0.00 | 36 | 1012.0 |
| 20260503194513 | 59 | 198 | 0.0 | 7.0 | 0.00 | 0.00 | 0.00 | 37 | 1012.2 |
| 20260503193003 | 58 | 149 | 2.0 | 10.0 | 0.00 | 0.00 | 0.00 | 36 | 1012.5 |
| 20260503191505 | 58 | 227 | 3.0 | 11.0 | 0.00 | 0.00 | 0.00 | 38 | 1012.7 |
| 20260503190008 | 58 | 55 | 2.0 | 7.0 | 0.00 | 0.00 | 0.00 | 38 | 1012.9 |